GW3170 Weather Reports


Display with metric or nautical units.
time (UTC)temp
F
wind
direction
speed
MPH
gust
MPH
rain 1hr
in
rain 24hr
in
rain mn
in
humidity
%
barometer
mb
20260906161607 74 0 0.0 3.0 0.00 0.00 0.00 60 1018.3
20260906161054 73 176 0.0 6.0 0.00 0.00 0.00 60 1018.4
20260906160556 73 0 1.0 6.0 0.00 0.00 0.00 60 1018.4
20260906160110 73 43 0.0 6.0 0.00 0.00 0.00 61 1018.4
20260906155554 73 0 0.0 6.0 0.00 0.00 0.00 59 1018.4
20260906155054 73 0 0.0 3.0 0.00 0.00 0.00 60 1018.4
20260906154605 73 0 0.0 6.0 0.00 0.00 0.00 61 1018.3
20260906154055 73 0 0.0 6.0 0.00 0.00 0.00 63 1018.3
20260906153559 72 0 0.0 2.0 0.00 0.00 0.00 63 1018.5
20260906153102 72 0 0.0 2.0 0.00 0.00 0.00 64 1018.5
20260906152601 72 0 0.0 1.0 0.00 0.00 0.00 65 1018.5
20260906152055 71 0 0.0 2.0 0.00 0.00 0.00 65 1018.5
20260906151605 72 0 0.0 2.0 0.00 0.00 0.00 65 1018.5
20260906151055 71 0 0.0 2.0 0.00 0.00 0.00 67 1018.5
20260906150559 72 0 0.0 1.0 0.00 0.00 0.00 66 1018.5
20260906150106 72 0 0.0 2.0 0.00 0.00 0.00 67 1018.5
20260906145554 71 0 0.0 7.0 0.00 0.00 0.00 70 1018.6
20260906145057 71 0 1.0 7.0 0.00 0.00 0.00 69 1018.5
20260906144623 71 119 0.0 3.0 0.00 0.00 0.00 69 1018.5
20260906144055 71 0 0.0 3.0 0.00 0.00 0.00 70 1018.5
20260906143555 71 90 0.0 3.0 0.00 0.00 0.00 69 1018.3
20260906143107 71 0 0.0 3.0 0.00 0.00 0.00 69 1018.4
20260906142554 70 0 0.0 0.0 0.00 0.00 0.00 69 1018.3
20260906142058 70 0 0.0 0.0 0.00 0.00 0.00 72 1018.3
20260906141628 70 0 0.0 2.0 0.00 0.00 0.00 72 1018.2
20260906141057 70 0 0.0 2.0 0.00 0.00 0.00 73 1018.2
20260906140559 69 0 0.0 2.0 0.00 0.00 0.00 75 1018.1
20260906140110 69 0 0.0 2.0 0.00 0.00 0.00 77 1018.2
20260906135556 68 0 0.0 4.0 0.00 0.00 0.00 79 1018.2
20260906135056 68 0 0.0 4.0 0.00 0.00 0.00 80 1018.2
20260906134608 68 0 0.0 2.0 0.00 0.00 0.00 81 1018.2
20260906134057 67 1 0.0 1.0 0.00 0.00 0.00 84 1018.2
20260906133553 67 0 0.0 1.0 0.00 0.00 0.00 85 1018.1
20260906133104 66 0 0.0 1.0 0.00 0.00 0.00 86 1018.1
20260906132557 66 0 0.0 1.0 0.00 0.00 0.00 88 1018.0
20260906132055 65 0 0.0 0.0 0.00 0.00 0.00 90 1018.0
20260906131607 64 0 0.0 4.0 0.00 0.00 0.00 91 1018.1
20260906131054 64 0 0.0 4.0 0.00 0.00 0.00 92 1018.2
20260906130559 63 0 0.0 4.0 0.00 0.00 0.00 92 1018.2
20260906130104 62 0 0.0 3.0 0.00 0.00 0.00 94 1018.1
20260906125557 62 0 0.0 1.0 0.00 0.00 0.00 95 1017.8
20260906125057 61 0 0.0 3.0 0.00 0.00 0.00 95 1017.9
20260906124603 61 0 0.0 4.0 0.00 0.00 0.00 95 1017.9
20260906124056 61 0 0.0 4.0 0.00 0.00 0.00 95 1017.9
20260906123554 60 284 0.0 4.0 0.00 0.00 0.00 95 1017.8
20260906123106 60 0 0.0 2.0 0.00 0.00 0.00 96 1017.7
20260906122554 60 0 0.0 2.0 0.00 0.00 0.00 96 1017.7
20260906122052 60 0 0.0 0.0 0.00 0.00 0.00 96 1017.6
20260906121604 60 0 0.0 0.0 0.00 0.00 0.00 96 1017.7
20260906121054 59 0 0.0 0.0 0.00 0.00 0.00 96 1017.7
20260906120554 59 0 0.0 0.0 0.00 0.00 0.00 96 1017.7
20260906120106 59 0 0.0 0.0 0.00 0.00 0.00 95 1017.7
20260906115554 59 0 0.0 1.0 0.00 0.00 0.00 95 1017.6
20260906115053 59 0 0.0 1.0 0.00 0.00 0.00 95 1017.6
20260906114605 59 0 0.0 1.0 0.00 0.00 0.00 95 1017.6
20260906114053 59 0 0.0 0.0 0.00 0.00 0.00 95 1017.6
20260906113553 59 0 0.0 1.0 0.00 0.00 0.00 95 1017.5
20260906113106 59 0 0.0 1.0 0.00 0.00 0.00 95 1017.4
20260906112553 59 0 0.0 1.0 0.00 0.00 0.00 95 1017.4
20260906112054 59 0 0.0 0.0 0.00 0.00 0.00 95 1017.3
20260906111602 59 0 0.0 1.0 0.00 0.00 0.00 95 1017.3
20260906111054 59 0 0.0 3.0 0.00 0.00 0.00 95 1017.3
20260906110554 59 0 0.0 3.0 0.00 0.00 0.00 95 1017.2
20260906110058 59 0 0.0 0.0 0.00 0.00 0.00 95 1017.2
20260906105558 59 0 0.0 0.0 0.00 0.00 0.00 95 1017.0
20260906105054 59 0 0.0 0.0 0.00 0.00 0.00 95 1017.0
20260906104621 59 0 0.0 0.0 0.00 0.00 0.00 95 1016.8
20260906104054 59 0 0.0 0.0 0.00 0.00 0.00 95 1016.7
20260906103555 59 0 0.0 0.0 0.00 0.00 0.00 95 1016.6
20260906103106 59 0 0.0 0.0 0.00 0.00 0.00 95 1016.5
20260906102554 59 0 0.0 0.0 0.00 0.00 0.00 95 1016.4
20260906102054 59 0 0.0 0.0 0.00 0.00 0.00 96 1016.2
20260906101603 59 0 0.0 0.0 0.00 0.00 0.00 96 1016.3
20260906101054 58 0 0.0 0.0 0.00 0.00 0.00 95 1016.2
20260906100554 58 0 0.0 0.0 0.00 0.00 0.00 95 1016.2
20260906100058 58 0 0.0 0.0 0.00 0.00 0.00 95 1016.2
20260906095553 58 0 0.0 0.0 0.00 0.00 0.00 95 1016.1
20260906095057 57 0 0.0 0.0 0.00 0.00 0.00 95 1016.1
20260906094640 57 0 0.0 0.0 0.00 0.00 0.00 95 1016.0
20260906094053 57 0 0.0 0.0 0.00 0.00 0.00 95 1016.0
20260906093554 56 0 0.0 0.0 0.00 0.00 0.00 95 1015.8
20260906093107 56 0 0.0 0.0 0.00 0.00 0.00 95 1015.7
20260906092558 56 0 0.0 0.0 0.00 0.00 0.00 95 1015.8
20260906092057 56 0 0.0 0.0 0.00 0.00 0.00 95 1015.7
20260906091610 56 0 0.0 0.0 0.00 0.00 0.00 94 1015.6
20260906091057 56 0 0.0 0.0 0.00 0.00 0.00 94 1015.5
20260906090556 56 0 0.0 0.0 0.00 0.00 0.00 94 1015.3
20260906090100 56 0 0.0 0.0 0.00 0.00 0.00 94 1015.3
20260906085556 56 0 0.0 0.0 0.00 0.00 0.00 94 1015.3
20260906085056 56 0 0.0 0.0 0.00 0.00 0.00 94 1015.4
20260906084606 56 0 0.0 0.0 0.00 0.00 0.00 94 1015.3
20260906084058 56 0 0.0 0.0 0.00 0.00 0.00 94 1015.3
20260906083557 56 0 0.0 0.0 0.00 0.00 0.00 94 1015.2
20260906083104 56 0 0.0 0.0 0.00 0.00 0.00 94 1015.2
20260906082557 56 0 0.0 0.0 0.00 0.00 0.00 94 1015.1
20260906082057 56 0 0.0 0.0 0.00 0.00 0.00 94 1015.1
20260906081602 57 0 0.0 0.0 0.00 0.00 0.00 94 1015.1
20260906081057 57 0 0.0 0.0 0.00 0.00 0.00 94 1015.0
20260906080557 57 0 0.0 0.0 0.00 0.00 0.00 94 1014.9
20260906075556 57 0 0.0 0.0 0.00 0.00 0.00 94 1014.9
20260906075058 58 0 0.0 0.0 0.00 0.00 0.00 94 1015.0
20260906074609 58 0 0.0 0.0 0.00 0.00 0.00 94 1014.9
20260906074101 58 0 0.0 0.0 0.00 0.00 0.00 94 1014.9
20260906073557 58 0 0.0 0.0 0.00 0.00 0.00 94 1014.9
20260906073106 58 0 0.0 0.0 0.00 0.00 0.00 94 1015.0
20260906072557 59 0 0.0 0.0 0.00 0.00 0.00 94 1014.9
20260906072056 59 0 0.0 0.0 0.00 0.00 0.00 94 1014.7
20260906071604 58 0 0.0 0.0 0.00 0.00 0.00 94 1014.8
20260906071059 58 0 0.0 0.0 0.00 0.00 0.00 94 1014.9
20260906070558 59 0 0.0 0.0 0.00 0.00 0.00 94 1014.8
20260906070103 59 0 0.0 0.0 0.00 0.00 0.00 94 1014.9
20260906065557 59 0 0.0 0.0 0.00 0.00 0.00 93 1014.8
20260906065056 59 0 0.0 0.0 0.00 0.00 0.00 93 1014.8
20260906064602 59 0 0.0 0.0 0.00 0.00 0.00 93 1014.8
20260906064058 60 0 0.0 0.0 0.00 0.00 0.00 93 1015.0
20260906063600 60 0 0.0 0.0 0.00 0.00 0.00 94 1014.9
20260906063107 60 0 0.0 0.0 0.00 0.00 0.00 94 1014.9
20260906062556 60 0 0.0 0.0 0.00 0.00 0.00 94 1014.9
20260906062102 60 0 0.0 0.0 0.00 0.00 0.00 94 1014.9
20260906061605 60 0 0.0 0.0 0.00 0.00 0.00 94 1015.0
20260906061054 60 0 0.0 0.0 0.00 0.00 0.00 94 1015.0
20260906060557 61 0 0.0 0.0 0.00 0.00 0.00 94 1015.0
20260906060109 61 0 0.0 0.0 0.00 0.00 0.00 94 1014.9
20260906055558 61 0 0.0 0.0 0.00 0.00 0.00 94 1015.0
20260906055054 61 0 0.0 0.0 0.00 0.00 0.00 94 1015.0
20260906054601 61 0 0.0 0.0 0.00 0.00 0.00 94 1015.0
20260906054055 61 0 0.0 0.0 0.00 0.00 0.00 94 1015.1
20260906053556 61 0 0.0 0.0 0.00 0.00 0.00 94 1015.1
20260906053100 61 0 0.0 0.0 0.00 0.00 0.00 94 1015.0
20260906052557 61 0 0.0 0.0 0.00 0.00 0.00 94 1015.1
20260906052055 61 0 0.0 0.0 0.00 0.00 0.00 94 1015.0
20260906051604 61 0 0.0 0.0 0.00 0.00 0.00 94 1015.0
20260906051100 61 0 0.0 0.0 0.00 0.00 0.00 94 1014.9
20260906050554 61 0 0.0 0.0 0.00 0.00 0.00 94 1015.0
20260906050128 61 0 0.0 0.0 0.00 0.00 0.00 94 1015.0
20260906045553 61 0 0.0 0.0 0.00 0.00 0.00 94 1014.9
20260906045053 61 0 0.0 0.0 0.00 0.00 0.00 94 1014.9
20260906044559 61 0 0.0 0.0 0.00 0.00 0.00 94 1015.0
20260906044058 61 0 0.0 0.0 0.00 0.00 0.00 94 1015.0
20260906043553 61 0 0.0 0.0 0.00 0.00 0.00 93 1015.1
20260906043101 61 0 0.0 0.0 0.00 0.00 0.00 93 1015.1
20260906042554 61 0 0.0 0.0 0.00 0.00 0.00 93 1015.1
20260906042054 61 0 0.0 0.0 0.00 0.00 0.00 93 1015.1
20260906041601 61 0 0.0 0.0 0.00 0.00 0.00 93 1015.1
20260906041054 61 0 0.0 0.0 0.00 0.00 0.00 93 1015.1
20260906040556 61 0 0.0 0.0 0.00 0.00 0.00 93 1015.1
20260906040137 61 0 0.0 0.0 0.00 0.00 0.00 93 1015.1
20260906035554 61 0 0.0 0.0 0.00 0.00 0.00 94 1015.1
20260906035057 61 0 0.0 0.0 0.00 0.00 0.00 93 1015.1
20260906034605 61 0 0.0 0.0 0.00 0.00 0.00 93 1015.0
20260906034052 61 0 0.0 0.0 0.00 0.00 0.00 93 1014.9
20260906033552 60 0 0.0 0.0 0.00 0.00 0.00 93 1014.9
20260906033104 60 0 0.0 0.0 0.00 0.00 0.00 93 1014.9
20260906032555 60 0 0.0 0.0 0.00 0.00 0.00 93 1014.9
20260906032055 60 0 0.0 0.0 0.00 0.00 0.00 93 1014.9
20260906031602 60 0 0.0 0.0 0.00 0.00 0.00 93 1014.9
20260906031112 60 0 0.0 0.0 0.00 0.00 0.00 93 1014.9
20260906030558 59 0 0.0 0.0 0.00 0.00 0.00 93 1014.9
20260906030107 59 0 0.0 0.0 0.00 0.00 0.00 93 1014.9
20260906025556 59 0 0.0 0.0 0.00 0.00 0.00 92 1014.9
20260906025057 59 0 0.0 0.0 0.00 0.00 0.00 92 1014.7
20260906024604 59 0 0.0 0.0 0.00 0.00 0.00 92 1014.8
20260906024057 59 0 0.0 0.0 0.00 0.00 0.00 92 1014.7
20260906023556 59 0 0.0 0.0 0.00 0.00 0.00 91 1014.8
20260906023103 59 0 0.0 0.0 0.00 0.00 0.00 91 1014.8
20260906022600 59 0 0.0 0.0 0.00 0.00 0.00 91 1014.7
20260906022100 59 0 0.0 0.0 0.00 0.00 0.00 91 1014.9
20260906021609 59 0 0.0 0.0 0.00 0.00 0.00 91 1014.8
20260906021058 59 0 0.0 0.0 0.00 0.00 0.00 91 1014.7
20260906020557 59 0 0.0 0.0 0.00 0.00 0.00 91 1014.7
20260906020107 60 0 0.0 0.0 0.00 0.00 0.00 91 1014.6
20260906015557 60 0 0.0 0.0 0.00 0.00 0.00 90 1014.6
20260906015057 60 0 0.0 0.0 0.00 0.00 0.00 90 1014.6
20260906014602 60 0 0.0 0.0 0.00 0.00 0.00 90 1014.6
20260906014101 60 0 0.0 0.0 0.00 0.00 0.00 90 1014.6
20260906013557 60 0 0.0 0.0 0.00 0.00 0.00 90 1014.5
20260906013104 60 0 0.0 0.0 0.00 0.00 0.00 90 1014.5
20260906012557 61 0 0.0 0.0 0.00 0.00 0.00 90 1014.6
20260906012056 61 0 0.0 0.0 0.00 0.00 0.00 89 1014.5
20260906011603 61 0 0.0 0.0 0.00 0.00 0.00 89 1014.5
20260906011101 61 0 0.0 0.0 0.00 0.00 0.00 89 1014.4
20260906010557 61 0 0.0 0.0 0.00 0.00 0.00 89 1014.3
20260906010109 61 0 0.0 0.0 0.00 0.00 0.00 88 1014.4
20260906005556 62 0 0.0 0.0 0.00 0.00 0.00 88 1014.5
20260906005057 62 0 0.0 0.0 0.00 0.00 0.00 88 1014.4
20260906004605 62 0 0.0 0.0 0.00 0.00 0.00 88 1014.3
20260906004057 62 0 0.0 0.0 0.00 0.00 0.00 87 1014.2
20260906003557 63 0 0.0 0.0 0.00 0.00 0.00 87 1014.2
20260906003108 63 0 0.0 0.0 0.00 0.00 0.00 86 1014.3
20260906002556 63 0 0.0 0.0 0.00 0.00 0.00 86 1014.3
20260906002057 64 0 0.0 0.0 0.00 0.00 0.00 85 1014.2
20260906001617 64 0 0.0 0.0 0.00 0.00 0.00 85 1014.3
20260906001057 64 0 0.0 0.0 0.00 0.00 0.00 84 1014.4
20260906000558 65 0 0.0 0.0 0.00 0.00 0.00 84 1014.2
20260906000108 65 0 0.0 0.0 0.00 0.00 0.00 83 1014.3
20260905235557 66 0 0.0 0.0 0.00 0.00 0.00 83 1014.3
20260905235057 66 0 0.0 0.0 0.00 0.00 0.00 82 1014.3
20260905234602 66 0 0.0 0.0 0.00 0.00 0.00 82 1014.3
20260905234057 67 0 0.0 0.0 0.00 0.00 0.00 81 1014.2
20260905233557 67 0 0.0 0.0 0.00 0.00 0.00 80 1014.2
20260905233112 68 0 0.0 0.0 0.00 0.00 0.00 79 1014.2
20260905232555 68 0 0.0 0.0 0.00 0.00 0.00 79 1014.3
20260905232059 69 0 0.0 1.0 0.00 0.00 0.00 77 1014.1
20260905231603 70 0 0.0 1.0 0.00 0.00 0.00 76 1014.2
20260905231059 71 0 0.0 1.0 0.00 0.00 0.00 74 1014.2
20260905230557 72 0 0.0 2.0 0.00 0.00 0.00 72 1014.2
20260905230059 73 0 0.0 2.0 0.00 0.00 0.00 71 1014.1
20260905225557 74 0 0.0 1.0 0.00 0.00 0.00 69 1014.0
20260905225054 75 0 0.0 0.0 0.00 0.00 0.00 68 1013.9
20260905224609 75 0 0.0 0.0 0.00 0.00 0.00 68 1014.1
20260905224056 75 0 0.0 0.0 0.00 0.00 0.00 68 1014.1
20260905223558 75 0 0.0 0.0 0.00 0.00 0.00 68 1014.2
20260905223104 75 0 0.0 0.0 0.00 0.00 0.00 69 1014.2
20260905222557 75 0 0.0 0.0 0.00 0.00 0.00 68 1014.3
20260905222057 75 0 0.0 2.0 0.00 0.00 0.00 69 1014.1
20260905221606 75 0 0.0 2.0 0.00 0.00 0.00 69 1014.1
20260905221057 75 0 0.0 6.0 0.00 0.00 0.00 69 1014.1
20260905220556 75 0 0.0 6.0 0.00 0.00 0.00 69 1014.1
20260905220105 76 0 0.0 0.0 0.00 0.00 0.00 67 1014.1
20260905215558 76 0 0.0 1.0 0.00 0.00 0.00 69 1013.9
20260905215059 75 0 0.0 5.0 0.00 0.00 0.00 69 1013.8
20260905214603 75 0 0.0 5.0 0.00 0.00 0.00 69 1013.8
20260905214057 75 331 0.0 2.0 0.00 0.00 0.00 67 1013.7
20260905213557 75 292 0.0 1.0 0.00 0.00 0.00 67 1013.6
20260905213109 75 18 0.0 1.0 0.00 0.00 0.00 67 1013.6
20260905212555 75 0 0.0 2.0 0.00 0.00 0.00 67 1013.6
20260905212056 75 0 0.0 3.0 0.00 0.00 0.00 67 1013.5
20260905211604 75 0 0.0 3.0 0.00 0.00 0.00 67 1013.4
20260905211058 75 0 0.0 5.0 0.00 0.00 0.00 68 1013.5
20260905210558 75 58 0.0 5.0 0.00 0.00 0.00 67 1013.5
20260905210113 75 0 0.0 5.0 0.00 0.00 0.00 67 1013.5
20260905205557 75 0 0.0 5.0 0.00 0.00 0.00 66 1013.5
20260905205059 76 0 0.0 5.0 0.00 0.00 0.00 67 1013.6
20260905204604 76 316 0.0 3.0 0.00 0.00 0.00 69 1013.4
20260905204057 75 0 0.0 2.0 0.00 0.00 0.00 68 1013.4
20260905203555 75 0 0.0 6.0 0.00 0.00 0.00 68 1013.5
20260905203107 74 340 0.0 6.0 0.00 0.00 0.00 68 1013.5
20260905202557 74 0 1.0 4.0 0.00 0.00 0.00 66 1013.5
20260905202057 75 0 0.0 5.0 0.00 0.00 0.00 65 1013.5
20260905201609 75 0 1.0 5.0 0.00 0.00 0.00 66 1013.6
20260905201056 75 0 0.0 5.0 0.00 0.00 0.00 68 1013.6
20260905200557 75 357 1.0 5.0 0.00 0.00 0.00 67 1013.5
20260905200152 75 331 0.0 7.0 0.00 0.00 0.00 68 1013.5
20260905195601 75 0 0.0 7.0 0.00 0.00 0.00 67 1013.5
20260905195057 75 0 1.0 7.0 0.00 0.00 0.00 68 1013.4
20260905194616 75 297 2.0 5.0 0.00 0.00 0.00 66 1013.6
20260905194057 76 323 0.0 3.0 0.00 0.00 0.00 66 1013.6
20260905193557 76 0 1.0 4.0 0.00 0.00 0.00 65 1013.6
20260905193107 77 0 1.0 4.0 0.00 0.00 0.00 64 1013.5
20260905192557 77 0 0.0 3.0 0.00 0.00 0.00 67 1013.4
20260905192056 76 0 0.0 1.0 0.00 0.00 0.00 67 1013.4
20260905191602 76 0 0.0 1.0 0.00 0.00 0.00 67 1013.3
20260905191100 76 0 0.0 5.0 0.00 0.00 0.00 65 1013.3
20260905190557 76 0 0.0 5.0 0.00 0.00 0.00 66 1013.4
20260905190115 76 0 1.0 5.0 0.00 0.00 0.00 67 1013.4
20260905185556 76 0 1.0 4.0 0.00 0.00 0.00 67 1013.5
20260905185100 76 0 0.0 3.0 0.00 0.00 0.00 68 1013.4
20260905184628 75 295 0.0 2.0 0.00 0.00 0.00 66 1013.4
20260905184059 75 0 0.0 6.0 0.00 0.00 0.00 68 1013.4
20260905183559 75 342 2.0 6.0 0.00 0.00 0.00 69 1013.4
20260905183125 74 345 0.0 3.0 0.00 0.00 0.00 70 1013.3
20260905182557 74 0 1.0 3.0 0.00 0.00 0.00 70 1013.3
20260905182057 74 0 0.0 6.0 0.00 0.00 0.00 72 1013.3
20260905181621 74 0 1.0 6.0 0.00 0.00 0.00 69 1013.5
20260905181057 74 0 0.0 4.0 0.00 0.00 0.00 71 1013.4
20260905180557 74 0 0.0 5.0 0.00 0.00 0.00 69 1013.4
20260905180125 75 0 0.0 5.0 0.00 0.00 0.00 70 1013.4
20260905175559 74 318 0.0 5.0 0.00 0.00 0.00 72 1013.2
20260905175056 73 0 0.0 3.0 0.00 0.00 0.00 73 1013.2
20260905174607 73 0 0.0 3.0 0.00 0.00 0.00 72 1013.3
20260905174056 74 0 0.0 3.0 0.00 0.00 0.00 71 1013.2
20260905173557 74 0 0.0 3.0 0.00 0.00 0.00 70 1013.2
20260905173103 74 325 0.0 3.0 0.00 0.00 0.00 71 1013.2
20260905172557 73 328 0.0 2.0 0.00 0.00 0.00 73 1013.3
20260905172057 72 0 0.0 1.0 0.00 0.00 0.00 73 1013.4
20260905171607 73 0 0.0 0.0 0.00 0.00 0.00 72 1013.5
20260905171058 73 0 0.0 0.0 0.00 0.00 0.00 71 1013.4
20260905170557 73 0 0.0 0.0 0.00 0.00 0.00 70 1013.4
20260905170109 74 0 0.0 2.0 0.00 0.00 0.00 70 1013.6
20260905165556 74 0 0.0 2.0 0.00 0.00 0.00 69 1013.5
20260905165100 74 0 0.0 4.0 0.00 0.00 0.00 71 1013.4
20260905164605 73 0 0.0 4.0 0.00 0.00 0.00 70 1013.5
20260905164058 73 0 0.0 1.0 0.00 0.00 0.00 69 1013.5
20260905163557 74 0 0.0 1.0 0.00 0.00 0.00 68 1013.6
20260905163104 73 293 0.0 2.0 0.00 0.00 0.00 72 1013.6
20260905162557 73 0 0.0 2.0 0.00 0.00 0.00 71 1013.6
20260905162057 73 0 0.0 3.0 0.00 0.00 0.00 70 1013.7